Location: *
(33.8649°S, 62.1526°E)
Time: 16:50:43
(UTC+00:00)

Cosmos 1869 - Pass Details

Date: 17 January 2021
Orbit: 517 x 564 km, 82.5° (Epoch: 04 March)

Event Time Altitude Azimuth Distance (km) Brightness Sun altitude
Exits shadow 17:00:24 43° 104° (ESE) 791 3.8 -20.5°
Drops below altitude 10° 17:03:58 10° 160° (SSE) 1,866 6.3 -21.0°
Sets 17:06:14 0° 166° (SSE) 2,776 7.3 -21.4°
